[[{"header":{"parameterUnit":"m.s-1","parameterCategory":1,"la1":30.2991,"la2":30.254,"lo1":-89.0895,"lo2":-89.0444,"dy":0.0017,"dx":0.0017,"nx":28,"ny":28,"refTime":"2023-10-20T03:00:00:Z","depth":0,"parameterNumber":2,"parameterNumberName":"U-component_of_WINDS"},"data":[0,0,0,0,0,0,0,0,0,0,0,0,0,0,0,0,0,0,0,0,0,0,0,0,0,0,0,0,0,0,0,0,0,0,0,0,0,0,0,0,0,0,0,0,0,0,0,0,0,0,0,0,0,0,0,0,0,0,2.3792,2.3793,0,2.3912,2.3913,2.3914,2.3908,2.3907,2.3905,2.3903,2.4028,2.4033,2.4037,0,0,0,0,0,0,0,0,0,0,0,0,0,2.3561,2.3565,2.3792,2.3793,2.3795,2.3911,2.3913,2.3915,2.3909,2.3907,2.3905,2.3903,2.4026,2.4032,2.4038,0,0,0,0,0,0,0,0,0,0,0,0,0,2.3669,2.3566,2.3791,2.3806,2.3808,2.3911,2.3913,2.3915,2.3909,2.3907,2.3904,2.3902,2.4024,2.4031,2.4039,2.4135,0,0,2.4061,2.4064,0,0,0,0,0,0,0,0,2.3663,2.3677,2.3802,2.3805,2.3808,2.3892,2.3877,2.3989,2.391,2.3871,2.3903,2.39,2.3985,2.3995,2.4024,2.4141,2.4147,2.4062,2.4066,2.4069,2.4072,0,0,0,0,0,0,0,2.3655,2.3672,2.3839,2.3804,2.3808,2.3807,2.382,2.3898,2.3941,2.3874,2.3874,2.3888,2.3986,2.4016,2.4026,2.4148,2.4062,2.4068,2.4073,2.4076,2.4353,2.4356,0,0,0,0,0,0,2.3644,2.3666,2.3835,2.3843,2.3727,2.3813,2.3827,2.3868,2.394,2.3949,2.389,2.3887,2.4005,2.4018,2.4031,2.4149,2.4069,2.4076,2.4081,2.435,2.4354,2.4357,0,0,0,0,0,0,2.3639,2.3659,2.383,2.3754,2.3776,2.382,2.3866,2.3872,2.3902,2.3952,2.396,2.3913,2.4004,2.402,2.411,2.4153,2.408,2.4086,2.4347,2.4351,2.4355,2.4386,0,0,0,0,0,0,2.3633,2.3658,2.3694,2.3755,2.378,2.3906,2.3868,2.3876,2.3914,2.3912,2.3976,2.3984,2.4003,2.4099,2.4117,2.4162,2.4092,2.4343,2.4349,2.4354,2.4381,2.4391,2.4399,0,0,0,0,0,2.3624,2.3698,2.3696,2.3716,2.3826,2.3909,2.3923,2.3943,2.3918,2.3955,2.3988,2.3982,2.4146,2.4108,2.4128,2.4176,2.434,2.4347,2.4354,2.4377,2.4389,2.4399,0,0,0,0,0,0,2.364,2.3706,2.3704,2.38,2.3849,2.3908,2.3955,2.3955,2.4012,2.4007,2.403,2.4045,2.4134,2.4165,2.4121,2.4275,2.424,2.4251,2.4251,2.4263,2.4271,2.4261,2.4098,0,0,0,0,0,2.3655,2.3716,2.377,2.3849,2.3874,2.3911,2.3947,2.3958,2.401,2.4031,2.407,2.4121,2.4185,2.4226,2.4287,2.4387,2.4401,2.443,2.4439,2.4446,2.4455,2.451,2.4524,2.4379,2.4379,2.4379,0,0,2.3685,2.3729,2.3766,2.3853,2.3893,2.3956,2.3928,2.3996,2.4043,2.4042,2.4128,2.4159,2.4218,2.4313,2.4357,2.4341,2.4498,2.4454,2.446,2.4465,2.4519,2.4532,2.4545,2.4383,2.4383,2.4382,0,0,2.3773,2.3812,2.3882,2.3923,2.3983,2.4007,2.4024,2.4084,2.4104,2.4192,2.4192,2.425,2.4358,2.44,2.4436,2.4543,2.4539,2.4562,2.4608,2.4662,2.4674,2.4684,2.4722,2.4735,2.4571,2.4571,2.4571,0,2.3803,2.3898,2.3919,2.3987,2.4026,2.4028,2.41,2.4139,2.4216,2.4243,2.4224,2.4361,2.4401,2.4506,2.4532,2.4562,2.4582,2.4554,2.467,2.4681,2.4691,2.4727,2.4741,2.4574,2.4573,2.4573,2.4573,0,2.3932,2.3998,2.4048,2.4122,2.4167,2.4237,2.4269,2.4312,2.4321,2.4348,2.4437,2.4486,2.4557,2.4583,2.4592,2.469,2.4679,2.4665,2.463,2.4706,2.4741,2.4755,2.4577,2.4576,2.4575,2.4575,0,0,2.403,2.4117,2.4134,2.4169,2.4237,2.4288,2.436,2.4429,2.4466,2.452,2.458,2.4673,2.4661,2.4702,2.4716,2.4764,2.4845,2.4745,2.4747,2.4761,2.4957,2.4965,2.4981,2.4845,2.4848,2.485,2.4952,0,2.4124,2.4248,2.427,2.438,2.4441,2.4446,2.4508,2.4557,2.4585,2.4642,2.4674,2.4738,2.4719,2.4743,2.4791,2.4825,2.4885,2.4819,2.4901,2.4904,2.4884,2.4999,2.5008,2.5102,2.4965,2.4968,2.4969,0,2.4249,2.4306,2.4422,2.4483,2.4509,2.4564,2.4631,2.4685,2.4742,2.4759,2.4805,2.4815,2.489,2.4854,2.4958,2.4912,2.4948,2.4971,2.4975,2.4981,2.4939,2.5008,2.5132,2.5145,2.4991,2.4989,2.4988,0,2.4307,2.4414,2.4497,2.4526,2.46,2.4639,2.4671,2.4725,2.4766,2.4825,2.4852,2.4919,2.4955,2.5007,2.5035,2.5006,2.5137,2.5103,2.5154,2.5153,2.5179,2.5176,2.5309,2.5205,2.5205,2.5204,2.5204,0,2.4409,2.4479,2.4524,2.4575,2.4654,2.4681,2.4759,2.4791,2.484,2.4897,2.4907,2.4961,2.4995,2.5055,2.5078,2.516,2.5177,2.5193,2.5198,2.5191,2.5189,2.5213,2.5207,2.5208,2.5207,2.5207,2.5206,0,2.4486,2.4519,2.461,2.4673,2.4691,2.4746,2.4801,2.4851,2.488,2.4953,2.4972,2.5017,2.5088,2.5122,2.521,2.5225,2.5319,2.532,2.5299,2.5301,2.5348,2.5343,2.55,2.5521,2.5404,2.5406,2.5406,0,2.4547,2.4601,2.4671,2.471,2.4743,2.4807,2.4849,2.4878,2.4922,2.4992,2.5034,2.5105,2.5163,2.5277,2.5318,2.5386,2.5388,2.5439,2.5398,2.539,2.5387,2.5383,2.5389,2.5445,2.5446,2.5447,2.5448,0,2.4652,2.4666,2.4726,2.4793,2.4843,2.4897,2.495,2.4982,2.5019,2.5068,2.5141,2.5186,2.5277,2.5348,2.5419,2.5454,2.5457,2.5461,2.5476,2.5468,2.5453,2.5461,2.5317,2.5456,2.5455,2.5455,2.5454,2.5454,2.4722,2.4771,2.4827,2.4894,2.4938,2.4987,2.5038,2.5074,2.5135,2.521,2.5224,2.5302,2.5359,2.5455,2.5493,2.5554,2.5542,2.5564,2.5569,2.5574,2.5576,2.5445,2.5568,2.5567,2.5567,2.5567,2.5567,0,2.4826,2.4864,2.4925,2.4999,2.5052,2.5052,2.5112,2.5156,2.5224,2.5277,2.5335,2.5419,2.5489,2.5537,2.5607,2.5648,2.5651,2.5665,2.5661,2.5669,2.5583,2.5562,2.5661,2.5661,2.5661,2.5661,2.5661,2.5661,2.4886,2.4968,2.499,2.5095,2.5132,2.5207,2.5241,2.5288,2.5331,2.5424,2.5482,2.5513,2.5565,2.564,2.5704,2.5717,2.5742,2.5756,2.5767,2.5685,2.5675,2.5666,2.5646,2.5761,2.5761,2.5849,2.5849,2.585]},{"header":{"parameterUnit":"m.s-1","parameterCategory":1,"la1":30.2991,"la2":30.254,"lo1":-89.0895,"lo2":-89.0444,"dy":0.0017,"dx":0.0017,"nx":28,"ny":28,"refTime":"2023-10-20T03:00:00:Z","depth":0,"parameterNumber":3,"parameterNumberName":"V-component_of_WINDS"},"data":[0,0,0,0,0,0,0,0,0,0,0,0,0,0,0,0,0,0,0,0,0,0,0,0,0,0,0,0,0,0,0,0,0,0,0,0,0,0,0,0,0,0,0,0,0,0,0,0,0,0,0,0,0,0,0,0,0,0,2.781,2.7811,0,2.7931,2.7933,2.7934,2.795,2.7949,2.7947,2.7946,2.8069,2.8073,2.8077,0,0,0,0,0,0,0,0,0,0,0,0,0,2.7589,2.7593,2.781,2.7811,2.7813,2.7931,2.7933,2.7935,2.795,2.7949,2.7947,2.7946,2.8068,2.8073,2.8078,0,0,0,0,0,0,0,0,0,0,0,0,0,2.7695,2.7595,2.7809,2.7835,2.7838,2.7931,2.7933,2.7935,2.795,2.7949,2.7947,2.7945,2.8066,2.8072,2.8079,2.8154,0,0,2.8098,2.8101,0,0,0,0,0,0,0,0,2.7689,2.7703,2.783,2.7833,2.7837,2.7924,2.79,2.8008,2.7951,2.7908,2.7946,2.7944,2.8022,2.8032,2.8058,2.8159,2.8165,2.8099,2.8103,2.8106,2.8108,0,0,0,0,0,0,0,2.7682,2.7698,2.7858,2.7831,2.7836,2.784,2.7853,2.7921,2.7973,2.7911,2.7913,2.7927,2.8024,2.8052,2.8061,2.8167,2.8099,2.8105,2.8109,2.8111,2.8335,2.8337,0,0,0,0,0,0,2.767,2.7692,2.7854,2.7861,2.7758,2.7845,2.786,2.7898,2.7972,2.7982,2.7928,2.7927,2.8042,2.8054,2.8066,2.8159,2.8106,2.8112,2.8116,2.8333,2.8336,2.8338,0,0,0,0,0,0,2.7665,2.7685,2.7849,2.7777,2.7798,2.7851,2.7893,2.7901,2.793,2.7985,2.7994,2.7948,2.8041,2.8057,2.8132,2.8163,2.8115,2.8121,2.8331,2.8334,2.8337,2.8344,0,0,0,0,0,0,2.7659,2.7683,2.7712,2.7778,2.7802,2.7913,2.7895,2.7905,2.7941,2.7941,2.8006,2.8015,2.8041,2.8122,2.8138,2.8171,2.8126,2.8328,2.8332,2.8336,2.8342,2.8347,2.8352,0,0,0,0,0,2.7651,2.7709,2.7713,2.7733,2.784,2.7915,2.7929,2.7958,2.7943,2.7973,2.8009,2.8013,2.8157,2.813,2.8148,2.8183,2.8326,2.8331,2.8335,2.8339,2.8346,2.8352,0,0,0,0,0,0,2.7645,2.7718,2.7724,2.7805,2.7854,2.7918,2.7956,2.7964,2.8018,2.8015,2.8048,2.8063,2.8137,2.8168,2.8136,2.826,2.824,2.8249,2.8237,2.8244,2.8249,2.824,2.8131,0,0,0,0,0,2.7653,2.7708,2.7769,2.7835,2.7859,2.7903,2.7937,2.7955,2.8007,2.8028,2.8069,2.8118,2.8175,2.8211,2.8266,2.8346,2.8361,2.838,2.8385,2.8389,2.8396,2.844,2.8449,2.8353,2.8353,2.8353,0,0,2.767,2.7717,2.7749,2.7834,2.7875,2.7931,2.7921,2.798,2.8022,2.8036,2.811,2.8142,2.82,2.8278,2.8314,2.8306,2.8426,2.8395,2.8398,2.8402,2.8446,2.8455,2.8463,2.8356,2.8355,2.8355,0,0,2.7729,2.7771,2.783,2.787,2.7931,2.7961,2.7975,2.8038,2.806,2.8135,2.8147,2.8197,2.8293,2.8334,2.8367,2.8443,2.8448,2.846,2.8487,2.853,2.8538,2.8545,2.8571,2.858,2.8467,2.8467,2.8467,0,2.7742,2.7828,2.7859,2.7918,2.7955,2.7972,2.8032,2.8069,2.8145,2.817,2.816,2.8282,2.8322,2.8409,2.8428,2.8454,2.8471,2.8452,2.8534,2.8542,2.8548,2.8574,2.8584,2.8467,2.8467,2.8467,2.8467,0,2.784,2.79,2.794,2.8014,2.8055,2.8114,2.8154,2.8192,2.8207,2.8237,2.8313,2.8362,2.8427,2.8449,2.8464,2.8539,2.8532,2.8528,2.8508,2.8558,2.8582,2.8592,2.8469,2.8468,2.8468,2.8468,0,0,2.7898,2.7989,2.8003,2.8036,2.8106,2.8152,2.8212,2.8277,2.8308,2.836,2.8411,2.8493,2.849,2.8527,2.8547,2.8585,2.8641,2.8576,2.8578,2.8586,2.8726,2.8728,2.8739,2.8646,2.8648,2.8649,2.8721,0,2.7964,2.8073,2.8103,2.8194,2.8249,2.8266,2.8318,2.8366,2.8396,2.8447,2.848,2.8537,2.8529,2.8552,2.859,2.8626,2.8669,2.8621,2.8692,2.8694,2.8676,2.8752,2.8754,2.8819,2.8731,2.8732,2.8734,0,2.8056,2.8111,2.8208,2.8271,2.8295,2.8341,2.8403,2.8451,2.8506,2.8525,2.8568,2.8584,2.8647,2.8625,2.8712,2.8679,2.871,2.8732,2.8735,2.8742,2.8716,2.8759,2.8841,2.885,2.8749,2.8748,2.8747,0,2.8087,2.8185,2.8256,2.8284,2.8359,2.8392,2.8424,2.8477,2.8514,2.8568,2.8592,2.8653,2.8685,2.8731,2.8763,2.8745,2.8847,2.8828,2.8864,2.8863,2.8883,2.8881,2.8969,2.8905,2.8905,2.8905,2.8905,0,2.8158,2.8216,2.8271,2.8314,2.838,2.8414,2.8478,2.8512,2.8559,2.8608,2.8627,2.8673,2.8713,2.8764,2.879,2.8857,2.8872,2.8889,2.8895,2.8887,2.8884,2.8906,2.8902,2.8907,2.8907,2.8906,2.8906,0,2.8203,2.8242,2.832,2.8385,2.8403,2.8449,2.8504,2.8547,2.8578,2.864,2.8657,2.8706,2.8767,2.8804,2.8882,2.8899,2.8973,2.8977,2.8955,2.8957,2.899,2.8986,2.9095,2.911,2.9036,2.9037,2.9038,0,2.8245,2.829,2.8361,2.8396,2.8429,2.8485,2.8523,2.8559,2.8598,2.8664,2.8698,2.8761,2.8813,2.8911,2.8952,2.9012,2.9017,2.9051,2.9026,2.9016,2.9017,2.9013,2.9017,2.9055,2.9055,2.9056,2.9056,0,2.8314,2.8332,2.8387,2.8449,2.8494,2.8544,2.8594,2.8621,2.8665,2.8708,2.8772,2.8812,2.8892,2.8954,2.9017,2.905,2.906,2.9064,2.9076,2.9067,2.9052,2.906,2.8965,2.9061,2.9061,2.906,2.906,2.906,2.8359,2.84,2.8456,2.8516,2.8558,2.8605,2.8648,2.8685,2.8739,2.8807,2.8825,2.8892,2.8945,2.9031,2.9066,2.9118,2.9112,2.9129,2.9133,2.9136,2.9136,2.9045,2.913,2.913,2.9129,2.9129,2.9129,0,2.8428,2.8466,2.8521,2.8591,2.8639,2.8646,2.8702,2.8741,2.8799,2.8849,2.8901,2.8974,2.9034,2.9081,2.9143,2.9175,2.9182,2.919,2.9188,2.9195,2.9138,2.9122,2.9184,2.9184,2.9184,2.9184,2.9184,2.9184,2.847,2.854,2.8565,2.8656,2.8693,2.8759,2.879,2.8833,2.8873,2.8954,2.9004,2.9035,2.9084,2.915,2.9205,2.9217,2.9239,2.9246,2.9259,2.9205,2.9199,2.9193,2.9178,2.9251,2.9251,2.9311,2.9312,2.9312]}]]